Volver al catálogo

HULIANWANG DIGUI-15

ActivoComunicacionesLEO
NORAD 62975·PAYLOAD·🇨🇳 China

Lanzado Feb 11, 2025 desde Wenchang Space Launch Site

Loading…

Próximos Pases (próximas 24 horas)

TLE

ActualizadoSource: Space-Track

Época: Sep 14, 2026, 12:45 UTC

1 62975U 25030E   26257.53181991 -.00000092  00000-0  68694-4 0  9997
2 62975  50.0020 275.3068 0000356  35.6486 324.4410 13.29327015 77741

Sigue HULIANWANG DIGUI-15 en tiempo real con AllMySat

Download on the App Store